Location: Unspecified
(17.6330°N, 0.0000°E)
Time: 07:03:25
(UTC+00:00)

ISS - Visible Passes

Search period start: 20 October 2019 00:00
Search period end: 30 October 2019 00:00
Orbit: 411 x 421 km, 51.6° (Epoch: 20 October)

Date Brightness Start Highest point End Pass type
(mag) Time Alt. Az. Time Alt. Az. Time Alt. Az.
20 Oct -0.3 04:44:31 10° SE 04:45:23 11° ESE 04:46:14 10° ESE visible
21 Oct -3.8 05:29:56 10° SW 05:33:16 68° NW 05:36:37 10° NNE visible
22 Oct -2.8 04:41:54 13° SSW 04:44:44 47° SE 04:47:59 10° NE visible
23 Oct -1.0 03:57:06 19° ESE 03:57:06 19° ESE 03:58:49 10° ENE visible
23 Oct -2.0 05:30:40 10° W 05:32:51 16° NW 05:35:01 10° N visible
24 Oct -2.6 04:44:56 29° NNW 04:44:56 29° NNW 04:47:16 10° NNE visible
